ITY170 LIRN-LIRF

Flight info

Callsign ITY170
Flight time N/A
Altitude 18000
Route SIPRO7J/24 SIPRO Z803 LAT LAT3A
Aircraft A339/H-SDE2E3FGHIJ1RWXY/5544

Departure

Time 2026-05-04 13:52
Airport Naples International Airport (LIRN)

Arrival

Time N/A
Airport Rome–Fiumicino Leonardo da Vinci International Airport (LIRF)
Time Latitude Longitude Altitude Speed Heading
2026-05-04 13:52 40.73228 14.28152 8648 ft 284 kts 145°
2026-05-04 13:52 40.71884 14.30075 9389 ft 289 kts 120°
2026-05-04 13:52 40.71255 14.32605 10107 ft 294 kts 95°
2026-05-04 13:53 40.71438 14.35289 10801 ft 297 kts 76°
2026-05-04 13:53 40.72047 14.37914 11426 ft 303 kts 68°
2026-05-04 13:53 40.73195 14.40234 12087 ft 305 kts 44°
2026-05-04 13:54 40.77039 14.42294 13485 ft 308 kts 356°
2026-05-04 13:54 40.78446 14.42054 13975 ft 308 kts 347°
2026-05-04 13:54 40.83369 14.40665 15465 ft 316 kts 346°
2026-05-04 13:55 40.85592 14.40060 15663 ft 336 kts 346°
2026-05-04 13:55 40.90415 14.38826 16102 ft 366 kts 345°
2026-05-04 13:55 40.92808 14.37708 16693 ft 365 kts 332°
2026-05-04 13:56 40.94270 14.36609 17092 ft 365 kts 324°
2026-05-04 13:56 40.96263 14.34532 17709 ft 365 kts 317°
2026-05-04 13:56 41.00164 14.30163 18850 ft 370 kts 317°
2026-05-04 13:57 41.02136 14.27967 19375 ft 372 kts 317°
2026-05-04 13:57 41.04119 14.25755 19915 ft 374 kts 318°
2026-05-04 13:58 41.10245 14.18914 20183 ft 405 kts 318°
2026-05-04 13:58 41.14662 14.13951 20185 ft 418 kts 318°
2026-05-04 13:58 41.16853 14.11489 20182 ft 418 kts 318°
2026-05-04 13:59 41.19079 14.08984 20179 ft 419 kts 318°
2026-05-04 13:59 41.21306 14.06479 20176 ft 419 kts 318°
2026-05-04 13:59 41.25754 14.01472 20171 ft 419 kts 317°
2026-05-04 14:00 41.27963 13.98943 20164 ft 419 kts 315°
2026-05-04 14:00 41.31742 13.93094 20155 ft 416 kts 303°
2026-05-04 14:00 41.33358 13.89901 20150 ft 416 kts 303°
2026-05-04 14:01 41.34992 13.86717 20151 ft 416 kts 303°
2026-05-04 14:01 41.36610 13.83581 20134 ft 417 kts 303°
2026-05-04 14:01 41.39887 13.77225 20145 ft 416 kts 303°
2026-05-04 14:02 41.41529 13.74039 20144 ft 416 kts 303°
2026-05-04 14:02 41.43093 13.70807 20140 ft 415 kts 298°
2026-05-04 14:02 41.44314 13.67333 20134 ft 414 kts 290°
2026-05-04 14:02 41.45153 13.63667 20131 ft 413 kts 282°
2026-05-04 14:03 41.45652 13.59892 20130 ft 413 kts 278°
2026-05-04 14:03 41.46117 13.56106 20133 ft 413 kts 279°
2026-05-04 14:03 41.46594 13.52331 20135 ft 413 kts 279°
2026-05-04 14:03 41.47076 13.48548 20131 ft 413 kts 279°
2026-05-04 14:04 41.48030 13.41003 20133 ft 412 kts 279°
2026-05-04 14:04 41.48504 13.37231 20139 ft 413 kts 279°
2026-05-04 14:04 41.48977 13.33458 20134 ft 413 kts 279°
2026-05-04 14:05 41.49908 13.25986 19193 ft 411 kts 279°
2026-05-04 14:05 41.50376 13.22223 18458 ft 410 kts 279°
2026-05-04 14:05 41.50841 13.18483 17534 ft 406 kts 279°
2026-05-04 14:06 41.51301 13.14783 16690 ft 401 kts 278°
2026-05-04 14:06 41.51750 13.11139 16322 ft 400 kts 278°
2026-05-04 14:06 41.52201 13.07464 16291 ft 401 kts 278°
2026-05-04 14:06 41.52651 13.03777 16272 ft 401 kts 278°
2026-05-04 14:07 41.53100 13.00108 16277 ft 400 kts 278°
2026-05-04 14:07 41.53560 12.96450 16215 ft 399 kts 281°
2026-05-04 14:07 41.54416 12.92949 16025 ft 397 kts 293°
2026-05-04 14:07 41.55837 12.89798 15445 ft 397 kts 306°
2026-05-04 14:08 41.57756 12.87142 14736 ft 396 kts 315°
2026-05-04 14:08 41.59792 12.84686 13874 ft 392 kts 315°
2026-05-04 14:08 41.61765 12.82272 13097 ft 384 kts 315°
2026-05-04 14:08 41.63711 12.79863 12266 ft 378 kts 315°
2026-05-04 14:09 41.67538 12.75073 10488 ft 375 kts 315°
2026-05-04 14:09 41.69435 12.72691 9697 ft 372 kts 315°
2026-05-04 14:10 41.73212 12.67948 9186 ft 373 kts 315°
2026-05-04 14:10 41.75101 12.65571 9159 ft 373 kts 315°
2026-05-04 14:10 41.76989 12.63195 9157 ft 373 kts 315°
2026-05-04 14:10 41.78865 12.60836 9145 ft 373 kts 315°
2026-05-04 14:11 41.80786 12.58419 9161 ft 374 kts 315°
2026-05-04 14:11 41.84454 12.53537 9162 ft 374 kts 313°
2026-05-04 14:11 41.86274 12.51043 9149 ft 374 kts 313°
2026-05-04 14:12 41.88112 12.48559 9117 ft 374 kts 315°
2026-05-04 14:12 41.90185 12.46450 9021 ft 374 kts 327°
2026-05-04 14:12 41.95007 12.43962 7829 ft 370 kts 343°
2026-05-04 14:13 41.97461 12.42989 6991 ft 367 kts 342°
2026-05-04 14:13 41.99886 12.42009 6390 ft 361 kts 342°
2026-05-04 14:13 42.02310 12.41008 6113 ft 365 kts 342°
2026-05-04 14:13 42.04705 12.40007 6014 ft 351 kts 342°
2026-05-04 14:14 42.06944 12.39070 6000 ft 323 kts 342°
2026-05-04 14:14 42.10915 12.37411 6015 ft 281 kts 342°
2026-05-04 14:14 42.12799 12.36636 5988 ft 284 kts 342°
2026-05-04 14:15 42.16545 12.35075 5768 ft 280 kts 342°
2026-05-04 14:15 42.20098 12.33140 5079 ft 276 kts 319°
2026-05-04 14:16 42.21768 12.28700 5006 ft 268 kts 274°
2026-05-04 14:16 42.21881 12.26209 4882 ft 262 kts 263°